Regional Weather Roundup
Issued by NWS Charleston, WV

Home | Current Version | Previous Version | Graphics & Text | Print | Product List | Glossary On
Versions: 1 2 3 4 5 6 7 8 9 10 11 12 13 14 15 16 17 18 19 20 21 22 23 24 25 26 27 28 29 30 31 32 33 34 35 36 37 38 39 40 41 42 43 44 45 46 47 48 49 50
691
ASUS41 KRLX 062010
RWRRLX
West Virginia Regional Weather Roundup
National Weather Service Charleston WV
300 PM EST TUE DEC 06 2016

Note: "fair" indicates few or no clouds below 12,000 feet with no
significant weather and/or obstructions to visibility.

WVZ003-062100-
Northern Panhandle of West Virginia

CITY           SKY/WX    TMP DP  RH WIND       PRES   REMARKS
WHEELING       LGT RAIN  39  37  92 SE10      29.67R FOG
$$

WVZ009-062100-
Northwest West Virginia

CITY           SKY/WX    TMP DP  RH WIND       PRES   REMARKS
PARKERSBURG    LGT RAIN  46  43  89 VRB7      29.71R VSB 1
$$

WVZ006-062100-
Western West Virginia

CITY           SKY/WX    TMP DP  RH WIND       PRES   REMARKS
HUNTINGTON     LGT RAIN  51  48  89 SE8       29.64F
$$

WVZ015-062100-
West Central West Virginia

CITY           SKY/WX    TMP DP  RH WIND       PRES   REMARKS
CHARLESTON     CLOUDY    48  39  71 S5        29.69R
$$

WVZ022-031-062100-
North Central West Virginia

CITY           SKY/WX    TMP DP  RH WIND       PRES   REMARKS
CLARKSBURG     LGT RAIN  42  38  85 S5        29.68F
MORGANTOWN     LGT RAIN  41  34  76 SE10      29.68F
$$

WVZ025-035-042-045-062100-
Southern West Virginia

CITY           SKY/WX    TMP DP  RH WIND       PRES   REMARKS
BECKLEY        LGT RAIN  38  36  92 SE12G20   29.69F
LOGAN          LGT RAIN  45  41  87 S6        29.69R
BLUEFIELD      LGT RAIN  38  35  89 CALM      29.71R
LEWISBURG      LGT RAIN  35  34  95 NE6       29.74F
$$

WVZ047-062100-
Northern Mountains of West Virginia

CITY           SKY/WX    TMP DP  RH WIND       PRES   REMARKS
ELKINS         LGT RAIN  40  33  76 S9        29.71F
$$

WVZ052-062100-
Eastern Panhandle of West Virginia

CITY           SKY/WX    TMP DP  RH WIND       PRES   REMARKS
MARTINSBURG    LGT RAIN  37  35  92 N5        29.86F FOG
PETERSBURG     LGT SNOW  35  35  98 W3        29.85F
$$




USA.gov is the U.S. government's official web portal to all federal, state and local government web resources and services.